TimeCDT,TemperatureF,Dew PointF,Humidity,Sea Level PressureIn,VisibilityMPH,Wind Direction,Wind SpeedMPH,Gust SpeedMPH,PrecipitationIn,Events,Conditions,WindDirDegrees,DateUTC
12:56 AM,39.9,26.1,58,30.15,10.0,ENE,8.1,-,N/A,,Clear,70,2013-04-05 05:56:00
1:56 AM,37.0,28.0,70,30.15,10.0,East,9.2,-,N/A,,Clear,90,2013-04-05 06:56:00
2:56 AM,35.1,27.0,72,30.14,10.0,East,9.2,-,N/A,,Clear,80,2013-04-05 07:56:00
3:56 AM,33.1,27.0,78,30.15,10.0,East,9.2,-,N/A,,Partly Cloudy,80,2013-04-05 08:56:00
4:56 AM,32.0,26.1,79,30.16,10.0,ESE,6.9,-,N/A,,Clear,110,2013-04-05 09:56:00
5:56 AM,30.9,26.1,82,30.14,10.0,ESE,10.4,-,N/A,,Clear,120,2013-04-05 10:56:00
6:56 AM,30.0,26.1,85,30.13,10.0,ESE,9.2,-,N/A,,Clear,110,2013-04-05 11:56:00
7:56 AM,32.0,28.0,85,30.14,10.0,ESE,12.7,-,N/A,,Scattered Clouds,110,2013-04-05 12:56:00
8:20 AM,33.8,28.4,81,30.10,10.0,ESE,17.3,23.0,N/A,,Scattered Clouds,120,2013-04-05 13:20:00
8:56 AM,36.0,28.9,76,30.12,10.0,SE,15.0,-,N/A,,Mostly Cloudy,130,2013-04-05 13:56:00
9:56 AM,39.9,28.9,65,30.09,10.0,ESE,17.3,-,N/A,,Scattered Clouds,120,2013-04-05 14:56:00
10:56 AM,46.0,30.9,56,30.04,10.0,SE,18.4,25.3,N/A,,Clear,130,2013-04-05 15:56:00
11:56 AM,52.0,32.0,47,30.01,10.0,SE,23.0,28.8,N/A,,Scattered Clouds,140,2013-04-05 16:56:00
12:56 PM,57.0,34.0,42,29.94,10.0,SE,19.6,28.8,N/A,,Clear,140,2013-04-05 17:56:00
1:56 PM,61.0,34.0,36,29.88,10.0,SSE,28.8,39.1,N/A,,Clear,160,2013-04-05 18:56:00
2:56 PM,64.0,34.0,33,29.82,10.0,South,24.2,34.5,N/A,,Clear,180,2013-04-05 19:56:00
3:56 PM,66.0,34.0,30,29.78,10.0,South,25.3,33.4,N/A,,Clear,170,2013-04-05 20:56:00
4:56 PM,69.1,32.0,25,29.74,10.0,South,25.3,33.4,N/A,,Clear,170,2013-04-05 21:56:00
5:56 PM,69.1,30.0,23,29.73,10.0,South,24.2,35.7,N/A,,Clear,180,2013-04-05 22:56:00
6:56 PM,68.0,30.9,25,29.70,10.0,South,19.6,25.3,N/A,,Clear,170,2013-04-05 23:56:00
7:56 PM,64.9,33.1,31,29.67,10.0,South,21.9,29.9,N/A,,Clear,170,2013-04-06 00:56:00
8:56 PM,62.1,34.0,35,29.67,10.0,South,21.9,31.1,N/A,,Clear,180,2013-04-06 01:56:00
9:56 PM,59.0,35.1,41,29.67,10.0,South,20.7,25.3,N/A,,Clear,170,2013-04-06 02:56:00
10:56 PM,59.0,37.0,44,29.65,10.0,South,16.1,29.9,N/A,,Clear,170,2013-04-06 03:56:00
11:56 PM,57.9,37.9,47,29.63,10.0,South,15.0,27.6,N/A,,Scattered Clouds,180,2013-04-06 04:56:00